Bangor, ME

7:13 PM EST on February 27, 2017 (GMT -0500)
Bangor International

Weather History for KBGR - September, 2012

Change the Weather History Date:

Tuesday, September 4, 2012

  Actual Average Record
Temperature  
Mean Temperature 67 °F 63 °F  
Max Temperature 77 °F 74 °F 93 °F (1937)
Min Temperature 56 °F 52 °F 36 °F (1938)
Degree Days  
Heating Degree Days 0 4  
Month to date heating degree days 17 13  
Since 1 July heating degree days 19 76  
Cooling Degree Days 2 2  
Month to date cooling degree days 2 8  
Year to date cooling degree days 386 302  
Growing Degree Days 16 (Base 50)    
Moisture  
Dew Point 59 °F    
Average Humidity 75    
Maximum Humidity 100    
Minimum Humidity 50    
Precipitation  
Precipitation 0.83 in 0.10 in 3.31 in (2010)
Month to date precipitation 0.95 0.42  
Year to date precipitation 25.24 26.67  
Snow  
Snow 0.00 in 0.00 in 0.00 in (2002)
Month to date snowfall 0.0 0.0  
Since 1 July snowfall 0.0 0.0  
Since 1 September snowfall 0.0 0.0  
Snow Depth 0.00 in    
Sea Level Pressure  
Sea Level Pressure 30.04 in    
Wind  
Wind Speed 6 mph (South)    
Max Wind Speed 16 mph    
Max Gust Speed 24 mph    
Visibility 7 miles    
Events Rain    
T = Trace of Precipitation, MM = Missing Value Source: NWS Daily Summary

Daily Weather History Graph

Daily Weather History Graph

Search for Another Location

Airport or City:

Trip Planner

Search our weather history database for the weather conditions in past years. The results will help you decide how hot, cold, wet, or windy it might be!

Date:

Astronomy

Sep. 04, 2012 Rise Set
Actual Time 6:01 AM EDT 7:05 PM EDT
Civil Twilight 5:31 AM EDT 7:35 PM EDT
Nautical Twilight 4:55 AM EDT 8:11 PM EDT
Astronomical Twilight 4:17 AM EDT 8:49 PM EDT
Moon 8:42 PM EDT (9/4) 10:18 AM EDT (9/4)
Length of Visible Light 14h 04m
Length of Day
13h 04m
Waning Gibbous, 84% of the Moon is Illuminated
Sep 4
Waning Gibbous
Sep 8
Last Quarter
Sep 15
New
Sep 22
First Quarter
Sep 29
Full

Hourly Weather History & Observations

Time (EDT) Temp. Dew Point Humidity Pressure Visibility Wind Dir Wind Speed Gust Speed Precip Events Conditions
12:53 AM 57.9 °F 57.0 °F 97% 30.14 in 10.0 mi SSW 4.6 mph - N/A   Partly Cloudy
1:53 AM 57.9 °F 57.0 °F 97% 30.13 in 10.0 mi South 5.8 mph - N/A   Clear
2:53 AM 57.0 °F 55.9 °F 96% 30.12 in 10.0 mi SSW 5.8 mph - N/A   Clear
3:53 AM 57.0 °F 55.9 °F 96% 30.11 in 10.0 mi South 4.6 mph - N/A   Clear
4:53 AM 57.0 °F 55.9 °F 96% 30.10 in 10.0 mi Calm Calm - N/A   Clear
5:53 AM 57.0 °F 55.9 °F 96% 30.10 in 10.0 mi South 3.5 mph - N/A   Partly Cloudy
6:53 AM 57.9 °F 57.0 °F 97% 30.12 in 10.0 mi SSW 6.9 mph - N/A   Scattered Clouds
7:53 AM 60.1 °F 57.9 °F 93% 30.11 in 10.0 mi South 6.9 mph - N/A   Partly Cloudy
8:53 AM 64.0 °F 57.9 °F 80% 30.10 in 10.0 mi SSW 6.9 mph - N/A   Partly Cloudy
9:53 AM 68.0 °F 57.9 °F 70% 30.09 in 10.0 mi South 10.4 mph - N/A   Scattered Clouds
10:53 AM 72.0 °F 55.0 °F 55% 30.08 in 10.0 mi SSW 12.7 mph 18.4 mph N/A   Scattered Clouds
11:53 AM 75.0 °F 55.0 °F 50% 30.06 in 10.0 mi SSW 11.5 mph 18.4 mph N/A   Scattered Clouds
12:53 PM 75.0 °F 57.0 °F 53% 30.05 in 10.0 mi SSW 11.5 mph 17.3 mph N/A   Scattered Clouds
1:53 PM 73.9 °F 60.1 °F 62% 30.04 in 10.0 mi SSW 12.7 mph - N/A   Mostly Cloudy
2:53 PM 72.0 °F 60.1 °F 66% 30.04 in 10.0 mi South 13.8 mph - N/A   Mostly Cloudy
3:53 PM 70.0 °F 61.0 °F 73% 30.03 in 10.0 mi South 9.2 mph - 0.00 in Rain Light Rain
4:53 PM 64.0 °F 61.0 °F 90% 30.04 in 10.0 mi SW 5.8 mph - 0.01 in Rain Light Rain
5:45 PM 62.6 °F 60.8 °F 94% 30.04 in 5.0 mi South 10.4 mph - 0.03 in Rain Light Rain
5:53 PM 62.1 °F 60.1 °F 93% 30.04 in 2.0 mi SSW 9.2 mph - 0.03 in Rain Light Rain
6:17 PM 62.6 °F 60.8 °F 94% 30.03 in 2.5 mi South 5.8 mph - 0.00 in   Light Drizzle
6:44 PM 62.6 °F 60.8 °F 94% 30.02 in 3.0 mi SSE 6.9 mph - 0.00 in Rain Light Rain
6:53 PM 62.1 °F 60.1 °F 93% 30.02 in 3.0 mi South 6.9 mph - 0.00 in Rain Light Rain
7:13 PM 60.8 °F 60.8 °F 100% 30.02 in 3.0 mi South 6.9 mph - 0.00 in Rain Light Rain
7:53 PM 61.0 °F 60.1 °F 97% 30.02 in 3.0 mi South 10.4 mph - 0.00 in   Overcast
8:53 PM 61.0 °F 60.1 °F 97% 30.01 in 7.0 mi South 8.1 mph - 0.00 in   Overcast
9:37 PM 60.8 °F 60.8 °F 100% 30.00 in 2.5 mi South 4.6 mph - 0.02 in Rain Light Rain
9:53 PM 60.1 °F 60.1 °F 100% 30.00 in 2.5 mi South 5.8 mph - 0.09 in Rain Light Rain
10:14 PM 60.8 °F 60.8 °F 100% 29.99 in 3.0 mi SSE 6.9 mph - 0.08 in Rain Light Rain
10:38 PM 60.8 °F 60.8 °F 100% 29.98 in 2.5 mi South 5.8 mph - 0.20 in Rain Light Rain
10:53 PM 60.1 °F 60.1 °F 100% 29.97 in 3.0 mi Calm Calm - 0.31 in Rain Light Rain
11:21 PM 60.8 °F 60.8 °F 100% 29.96 in 10.0 mi Calm Calm - 0.00 in   Overcast
11:34 PM 60.8 °F 60.8 °F 100% 29.96 in 5.0 mi Calm Calm - 0.01 in Rain Light Rain
11:42 PM 60.8 °F 60.8 °F 100% 29.96 in 3.0 mi SE 3.5 mph - 0.03 in Rain Light Rain
11:46 PM 60.8 °F 60.8 °F 100% 29.96 in 2.5 mi SSE 4.6 mph - 0.09 in Rain Heavy Rain
11:53 PM 60.1 °F 60.1 °F 100% 29.94 in 2.0 mi SSE 8.1 mph - 0.16 in Rain Heavy Rain